Volver al catálogo

IPM 2/BREEZE-M

ActivoCienciaGEO
NORAD 47242·PAYLOAD·🇷🇺 Russia

Lanzado Dec 14, 2020 desde Plesetsk Cosmodrome

Loading…

TLE

ActualizadoSource: Space-Track

Época: Sep 13, 2026, 15:07 UTC

1 47242U 20097A   26256.62995771 -.00000096  00000-0  00000-0 0  9990
2 47242   5.5933  75.6017 0083365 282.1180  77.2099  0.95297799 20114

Sigue IPM 2/BREEZE-M en tiempo real con AllMySat

Download on the App Store